Regional Weather Roundup
Issued by NWS

Home | Current Version | Previous Version | Graphics & Text | Print | Product List | Glossary On
Versions: 1 2 3 4 5 6 7 8 9 10 11 12 13 14 15 16 17 18 19 20 21 22 23 24 25 26 27 28 29 30 31 32 33 34 35 36 37 38 39 40 41 42 43 44 45 46 47 48 49 50
608
ASUS44 KJAN 250810
RWRMS

MISSISSIPPI HOURLY WEATHER ROUNDUP
NATIONAL WEATHER SERVICE JACKSON MS
300 AM CDT FRI JUL 25 2014

NOTE: "FAIR: INDICATES FEW OR NO CLOUDS BELOW 12,000 FEET WITH NO
SIGNIFICANT WEATHER AND/OR OBSTRUCTIONS TO VISIBILITY.

MSZ001>002-007>008-010>013-018>021-025>028-034>036-250900-
NORTHWEST MISSISSIPPI

CITY           SKY/WX    TMP DP  RH WIND       PRES   REMARKS
CLARKSDALE     FAIR      63  63 100 CALM      30.03S
CLEVELAND      FAIR      62  62  99 CALM      30.01F
GREENWOOD      CLEAR     65  63  93 CALM      30.00F
GREENVILLE     CLEAR     65  63  93 CALM      30.00F
GRENADA        FAIR      59  59 100 NW3       30.01F
OLIVE BRANCH   CLEAR     61  61 100 CALM      30.02S
OXFORD         FAIR      59  57  94 CALM      30.03F
TUNICA         SUNNY     63  61  94 CALM      30.02F
$$

MSZ003>006-009-014>017-022>024-029>033-037>039-250900-
NORTHEAST MISSISSIPPI

CITY           SKY/WX    TMP DP  RH WIND       PRES   REMARKS
BELMONT        FAIR      62  61  97 CALM      30.00F
COLUMBUS AFB   CLEAR     63  63 100 NW3       30.00S
CORINTH        FAIR      63  59  88 CALM      30.00S FOG
GOLDN TRIANGLE CLEAR     64  61  88 W3        30.00F
STARKVILLE     FAIR      63  61  94 CALM      30.00F
TUPELO         CLEAR     64  61  90 CALM      29.99F
$$

MSZ040-058-250900-
CENTRAL MISSISSIPPI

CITY           SKY/WX    TMP DP  RH WIND       PRES   REMARKS
JACKSON INTL   CLEAR     73  69  87 N3        30.00S
JACKSON HAWKNS CLEAR     73  66  78 CALM      30.01S
MERIDIAN KEY   CLEAR     73  71  93 CALM      29.99F
MERIDIAN NAS   CLEAR     70  68  93 CALM      29.99F
RAYMOND        FAIR      70  64  83 CALM      30.01S
VICKSBURG      CLEAR     71  67  87 N3        30.01S
$$

MSZ059>079-250900-
SOUTH MISSISSIPPI

CITY           SKY/WX    TMP DP  RH WIND       PRES   REMARKS
BROOKHAVEN     FAIR      73  73 100 CALM      30.02S FOG
COLUMBIA       FAIR      72  72 100 CALM      29.98F FOG
HATTIESBURG    FOG       76  73  91 NW3       29.99S VSB 1/2
MCCOMB         PTCLDY    74  72  93 CALM      30.00F
NATCHEZ        CLEAR     73  72  94 NE3       30.01F
PINE BELT      CLEAR     75  72  88 N5        30.01S
$$

MSZ080>082-250900-
COASTAL MISSISSIPPI

CITY           SKY/WX    TMP DP  RH WIND       PRES   REMARKS
BILOXI         CLEAR     78  76  93 NW2       29.97F
PASCAGOULA     CLEAR     72  71  97 CALM      29.97F
GULFPORT       MOCLDY    80  74  81 CALM      29.97S
$$



USA.gov is the U.S. government's official web portal to all federal, state and local government web resources and services.